Powrót do katalogu

STARLINK-30132

AktywnyŁącznośćVLEO
NORAD 56703·PAYLOAD·🇺🇸 United States

Wystrzelony May 19, 2023 z Cape Canaveral Space Force Station

Loading…

Następne Przeloty (najbliższe 24 godziny)

TLE

ŚwieżeSource: CelesTrak SupGP

Epoka: Sep 14, 2026, 21:07 UTC

1 56703C 23067R   26257.88034722 -.00002357  00000+0 -85393-4 0  2572
2 56703  42.9998 285.5898 0001406 269.8418 293.4054 15.27576216    18

Śledź STARLINK-30132 w czasie rzeczywistym z AllMySat

Download on the App Store